Theta_e
316 318 318 318 317 311 309 309 309 309 308 308 308 308 307 308 308 310 312 310 311 313 314 312 313 313 313 313 313 308 311 312 313 312 316 311 314 312 311 313 314 315 321 322 336
316 317 317 317 318 312 309 309 309 308 307 307 307 307 307 308 309 313 310 312 313 312 312 312 311 312 310 313 311 309 310 312 310 310 314 313 313 311 314 314 316 319 322 325 335
315 316 317 317 317 314 310 309 308 307 307 307 307 307 308 309 316 312 310 314 313 312 312 312 312 312 312 311 311 310 310 310 311 311 312 312 313 311 311 314 312 315 322 329 332
315 315 316 316 317 311 311 309 308 307 307 307 307 308 309 311 307 315 314 313 311 311 312 312 310 311 311 311 311 311 310 309 311 311 312 312 311 312 310 311 311 310 322 330 331
315 315 316 316 316 313 309 308 308 307 307 307 308 309 311 313 311 313 314 313 311 310 312 310 311 310 311 310 310 310 310 310 311 310 310 310 312 311 310 309 309 311 326 330 332
315 315 315 316 316 313 309 308 307 307 307 308 308 310 312 308 312 312 312 312 310 311 311 310 309 310 309 310 310 309 310 310 310 310 311 310 309 311 308 307 308 316 324 326 329
315 315 315 316 314 312 309 308 307 308 308 309 310 311 313 308 312 311 312 311 311 311 311 311 311 310 310 311 310 309 311 310 310 310 311 311 308 309 308 307 306 309 316 321 324
316 315 315 315 314 312 309 308 308 309 310 311 311 313 308 311 313 312 310 311 311 312 312 312 312 311 310 309 308 309 306 307 308 309 311 308 306 306 307 307 307 306 304 308 315
316 316 315 313 312 311 310 310 311 310 312 313 312 310 306 312 313 311 311 311 311 312 312 313 311 310 309 308 308 307 306 308 308 308 311 309 308 307 308 307 309 307 304 303 304
315 315 314 312 311 311 311 312 313 313 314 315 315 312 308 310 313 312 310 311 310 310 311 310 306 308 305 306 307 310 309 308 308 310 310 311 309 307 306 307 306 305 304 303 303
312 314 313 311 311 311 313 316 313 314 316 309 311 308 307 312 311 311 311 311 309 307 309 309 309 309 308 306 306 307 309 309 309 310 311 309 309 308 307 305 304 304 303 302 302
314 312 313 312 310 312 315 313 311 310 312 313 314 311 312 312 312 310 310 310 309 308 308 309 308 307 307 306 307 307 308 309 309 310 310 309 308 306 305 306 306 305 303 302 301
319 314 312 312 311 313 315 317 318 317 310 310 314 312 312 312 310 310 308 308 307 308 308 308 308 306 307 307 307 308 307 308 309 308 307 308 305 304 305 304 306 305 304 304 303
318 317 313 312 313 313 314 313 318 318 309 313 313 313 312 311 312 309 309 309 308 307 307 308 307 307 309 308 306 308 307 308 308 307 308 306 304 305 306 304 305 304 303 305 307
318 318 314 312 312 314 313 312 319 313 310 310 314 311 310 310 310 311 309 309 308 307 308 308 308 308 309 309 307 309 307 308 308 306 310 308 307 304 305 307 306 307 307 306 304
317 317 316 313 314 313 314 311 314 314 309 316 316 313 312 312 312 310 310 309 306 309 309 307 309 307 307 308 308 307 307 306 306 304 307 306 305 304 305 308 310 310 307 306 304
313 317 315 313 315 314 314 314 314 315 310 319 317 312 312 313 312 311 311 312 310 311 311 312 311 310 308 309 309 306 306 308 308 308 308 306 306 304 306 309 311 311 308 306 304
310 313 313 313 314 315 313 315 317 311 311 317 316 312 313 312 313 311 311 312 310 307 309 310 312 310 308 308 309 305 306 308 307 310 307 309 310 308 309 308 307 307 307 305 303
308 308 310 312 314 313 314 316 315 312 312 318 317 315 315 313 312 311 311 311 310 307 310 310 310 310 308 308 309 308 307 305 308 297 308 310 310 311 311 310 308 308 306 304 303
306 307 307 309 312 313 314 315 313 313 316 316 319 316 316 315 314 312 311 309 310 308 307 310 311 311 311 309 310 309 308 312 308 308 310 307 310 311 313 311 309 308 306 304 302
304 307 306 307 307 312 314 314 312 311 314 318 317 317 316 316 313 314 312 310 309 308 309 308 311 313 311 311 310 311 311 311 310 309 310 309 309 305 311 310 309 306 304 303 301
301 308 305 306 305 302 308 310 311 314 313 312 311 315 316 315 314 313 312 310 308 309 312 311 309 310 311 311 313 313 309 310 310 310 310 309 309 310 309 308 307 306 303 302 300
301 304 304 307 310 308 303 309 312 313 313 313 314 313 311 316 318 313 312 313 311 310 311 312 311 309 311 312 313 315 313 311 310 308 310 309 310 309 307 308 307 306 303 301 300
298 304 303 306 308 308 308 308 310 311 313 312 313 313 313 314 313 317 317 315 315 315 314 313 312 313 312 312 314 316 314 312 312 310 311 310 313 310 309 309 307 304 302 300 300
296 298 300 307 307 309 309 309 310 311 312 311 312 312 313 314 314 316 314 317 314 314 314 313 314 312 314 313 313 312 313 313 314 312 313 312 314 313 310 308 306 302 300 300 300
296 296 297 299 307 309 310 310 310 310 311 313 312 312 312 313 314 315 314 313 318 314 314 311 314 314 315 314 314 313 312 314 313 313 315 313 316 311 309 304 303 301 300 300 299
298 296 296 298 304 308 309 309 310 308 307 310 311 312 313 313 311 309 311 312 313 314 313 312 312 316 318 313 314 318 314 313 314 313 313 317 313 308 306 305 301 300 300 300 299
Wind_Speed
19 18 17 18 18 19 17 15 14 11 10 8 7 7 5 5 8 6 7 6 7 7 8 6 4 2 0 2 3 3 4 2 6 6 4 5 4 2 2 5 2 1 6 3 26
21 19 18 18 18 19 18 15 14 13 12 9 8 5 5 4 6 8 7 6 9 10 10 9 4 4 2 2 3 4 4 8 3 3 4 6 3 7 4 2 1 1 1 13 30
22 21 18 18 17 17 18 17 15 14 11 10 7 5 5 3 3 6 12 9 8 11 6 7 5 3 2 2 0 2 4 5 2 2 3 6 3 1 7 3 6 8 6 12 19
23 21 20 19 19 18 18 17 15 13 10 8 6 4 3 2 5 2 7 11 8 11 7 6 3 4 4 5 2 2 2 5 4 1 3 5 2 2 5 6 2 9 10 17 13
22 22 20 19 19 18 18 16 14 12 11 8 6 3 3 3 6 3 5 10 9 11 6 4 4 4 6 5 4 3 4 2 2 1 4 4 3 4 6 7 4 7 9 14 15
22 22 21 20 20 18 18 16 14 12 9 8 6 4 1 3 1 2 5 9 8 9 5 5 6 4 5 4 4 5 3 2 2 1 0 3 2 1 2 2 5 8 11 10 13
22 21 20 21 20 19 17 15 14 11 9 8 6 5 1 9 2 4 6 6 6 7 4 4 3 2 4 5 2 5 4 3 2 2 1 1 3 8 3 3 5 7 9 8 14
25 22 21 22 20 18 17 15 13 10 8 7 6 5 5 3 5 6 8 6 5 3 2 4 4 5 4 3 6 4 5 2 2 4 0 2 8 4 5 5 6 5 7 9 12
24 23 24 23 20 18 16 14 11 10 8 7 5 5 5 3 6 7 7 6 6 4 3 5 4 4 4 6 4 5 3 4 5 5 2 2 6 3 2 5 1 5 8 9 9
27 26 25 23 20 18 16 13 11 9 8 5 2 3 2 5 5 11 8 9 3 4 4 6 5 3 3 3 6 5 3 3 4 4 3 2 9 8 7 5 8 8 8 9 10
28 25 25 24 23 20 21 14 5 2 3 6 4 2 2 4 7 7 7 7 4 6 4 2 3 8 8 8 4 6 4 4 3 2 3 6 7 11 8 7 9 11 10 10 10
27 27 26 24 23 21 22 3 5 5 4 10 4 3 3 4 4 1 11 6 5 5 5 3 6 7 4 4 4 5 5 3 1 2 3 1 9 10 8 10 8 8 9 9 7
28 28 27 24 22 21 16 9 3 5 4 3 5 4 4 5 5 10 9 5 5 6 6 7 4 7 7 4 5 3 5 4 3 2 3 3 7 6 6 5 6 5 7 5 8
30 30 28 26 15 17 12 25 0 2 3 4 7 6 5 5 3 4 11 5 3 9 8 4 1 7 4 5 6 5 6 4 5 4 3 2 5 6 4 9 6 8 7 3 4
35 35 33 34 14 15 10 24 9 2 2 5 6 6 4 7 6 3 4 4 9 8 8 7 8 6 5 6 6 5 4 5 3 4 2 2 1 7 3 6 5 6 7 6 6
33 38 37 30 14 20 12 22 0 4 8 4 4 8 7 3 2 4 4 4 5 5 3 5 0 5 8 3 4 8 7 7 5 3 2 6 6 5 4 2 2 4 6 7 7
15 42 43 33 11 23 22 9 3 9 2 7 6 6 11 6 4 5 9 7 7 6 4 2 2 1 4 7 4 4 6 2 2 2 5 1 2 7 5 4 2 5 5 6 6
12 24 30 24 25 30 27 8 6 7 8 3 5 9 9 6 2 5 10 11 9 3 5 8 5 8 4 6 9 6 8 6 7 4 3 3 6 5 4 4 5 5 4 7 10
7 11 11 12 21 29 10 11 11 7 9 8 5 10 5 5 6 5 10 16 15 10 7 6 5 1 2 4 10 6 6 5 7 3 3 4 5 3 4 4 4 7 8 8 8
5 5 4 7 20 18 12 14 6 1 6 5 9 7 9 9 5 7 9 7 6 9 2 7 3 0 1 4 2 6 9 4 2 4 4 4 4 5 6 7 5 5 7 7 7
3 3 1 5 8 6 7 9 3 2 1 5 6 5 6 8 8 9 11 4 13 9 6 6 4 1 5 7 9 3 3 2 5 5 6 3 6 4 10 8 9 7 6 6 7
1 2 8 11 2 1 3 6 4 6 2 3 3 4 6 9 7 8 12 7 8 12 16 7 6 5 8 2 1 1 8 8 6 5 3 3 6 3 10 8 7 7 6 5 7
2 2 4 4 3 2 2 1 5 5 5 3 3 1 1 4 5 6 6 2 5 11 13 9 4 3 5 3 1 4 4 4 5 3 8 6 6 3 6 7 4 9 7 6 5
2 2 1 2 2 6 4 4 4 3 5 4 4 4 3 3 1 3 4 1 1 4 3 10 3 12 16 8 8 7 8 7 8 4 7 8 7 6 7 8 6 6 6 6 5
1 2 2 4 4 6 9 7 4 4 4 10 6 5 5 5 5 5 2 3 3 2 3 6 8 4 2 3 3 7 10 14 14 18 10 13 16 20 15 12 9 7 6 6 5
2 2 1 1 4 10 11 10 11 4 7 8 4 12 11 6 4 6 7 2 5 3 4 1 4 3 1 3 4 4 8 19 24 18 4 6 2 10 10 8 7 7 6 6 5
3 1 1 1 2 7 5 8 10 9 2 6 11 8 9 11 5 3 2 4 2 3 4 6 7 5 10 8 5 8 18 14 11 5 16 13 7 10 11 12 11 8 6 6 5
Wind_Direction
204 206 206 204 197 191 192 193 195 196 203 209 215 231 247 257 274 243 232 217 214 189 180 171 150 181 332 70 52 137 65 151 164 150 198 157 143 161 355 118 123 176 156 193 155
205 206 204 212 203 194 187 192 191 190 193 198 213 216 260 277 271 243 234 220 205 180 175 162 173 136 42 48 21 80 108 202 182 187 184 167 161 163 154 131 162 231 28 146 157
208 206 211 208 211 199 189 188 195 194 193 190 205 209 215 237 243 243 213 198 187 184 185 172 165 117 123 93 192 169 166 184 184 215 169 150 126 203 131 241 212 202 165 149 159
213 206 212 207 209 196 196 188 194 196 196 193 201 208 245 137 195 309 192 187 194 187 188 161 109 123 126 145 171 109 166 157 173 148 113 156 106 216 193 217 241 212 166 164 169
213 206 208 211 206 196 197 188 195 193 193 197 190 184 174 123 253 296 177 183 187 184 198 151 140 146 152 154 120 135 192 117 114 127 117 123 170 236 255 235 34 134 159 178 185
210 210 205 210 204 199 190 193 190 194 190 185 185 179 184 215 223 202 185 182 185 182 168 171 184 196 113 154 143 164 139 149 136 204 349 176 202 49 295 258 157 160 188 195 191
202 207 204 209 203 195 188 188 184 196 181 175 172 164 164 229 220 193 171 176 195 187 157 198 153 124 123 119 133 114 104 351 221 202 234 149 276 233 244 27 192 197 212 216 223
195 198 205 209 201 193 184 184 180 183 169 170 166 147 240 229 192 197 172 163 172 189 196 159 152 103 76 110 32 78 63 121 297 142 18 114 265 287 342 178 217 230 227 227 239
195 198 206 203 194 191 177 171 172 167 165 159 155 142 252 197 184 192 184 159 155 134 132 123 79 95 53 97 42 16 180 195 315 202 126 161 267 264 87 51 222 220 246 240 249
197 197 197 195 188 185 167 159 156 142 136 129 98 114 185 214 181 168 174 151 124 105 63 54 51 94 54 111 195 172 196 214 215 205 132 191 262 279 284 318 283 273 254 248 250
192 192 196 191 185 175 155 134 122 88 193 185 209 206 162 139 135 163 156 125 91 66 148 43 136 199 190 187 148 130 153 183 199 153 139 218 274 273 283 290 257 262 256 257 249
190 192 192 189 182 174 171 169 194 171 161 229 278 262 152 157 107 197 164 129 129 159 122 68 232 220 136 117 124 135 154 216 358 120 136 81 272 268 271 259 246 255 262 257 271
192 192 189 184 178 178 193 194 180 170 125 199 172 185 180 162 184 191 145 139 132 140 169 164 228 147 143 143 152 182 171 198 187 77 43 360 291 301 292 257 273 263 261 269 259
197 193 185 175 165 182 207 191 52 180 79 220 190 245 141 166 234 166 169 135 145 171 140 216 176 141 149 186 139 193 196 168 138 99 224 18 275 296 280 300 297 340 358 22 25
203 193 184 180 149 180 205 193 226 52 179 206 172 151 149 173 141 215 174 63 156 158 132 228 167 149 170 196 154 203 122 126 89 105 69 322 13 273 326 286 300 12 29 26 15
198 197 187 177 169 188 187 184 161 90 235 166 135 158 137 160 107 114 134 67 140 112 54 177 172 163 186 83 128 155 82 54 60 84 295 203 167 268 222 239 89 33 13 4 13
170 195 185 174 172 168 169 125 128 201 211 181 185 171 163 159 127 143 161 167 160 121 168 76 208 202 135 92 47 91 88 16 349 2 229 54 126 246 278 306 28 91 27 11 31
79 168 166 167 173 171 174 147 203 192 207 122 133 139 188 144 180 155 142 191 236 124 128 158 224 164 187 173 159 181 159 164 194 195 243 95 226 249 319 54 85 72 33 46 36
123 60 103 169 181 177 168 199 205 174 162 142 89 158 186 214 136 139 191 200 196 182 153 152 234 358 152 147 148 193 204 152 103 17 66 213 270 336 40 56 73 73 58 49 44
77 90 92 94 194 182 184 206 207 204 118 160 165 175 175 181 142 171 168 195 206 179 177 196 133 334 143 109 5 168 150 81 7 137 231 254 266 211 184 184 162 106 81 62 53
83 106 188 135 53 185 205 207 168 230 123 155 168 141 167 171 172 195 203 220 192 180 147 144 113 351 130 215 163 135 176 177 139 166 182 175 249 214 178 176 154 134 104 85 68
91 149 163 156 91 142 188 172 183 154 117 122 91 106 161 159 167 198 205 214 184 154 193 176 133 167 200 257 319 279 194 165 175 216 234 162 254 184 159 163 136 120 109 95 84
142 100 222 165 167 170 152 164 197 155 151 132 107 53 84 143 174 184 182 191 172 170 179 173 195 84 357 340 348 216 191 135 102 85 204 143 244 111 102 112 117 129 112 96 92
114 135 277 257 190 145 146 159 193 165 112 110 107 102 106 141 12 147 197 150 133 171 132 162 147 206 218 220 138 201 192 192 185 182 213 221 147 196 180 158 149 127 124 117 98
68 229 295 186 213 155 157 174 173 145 160 155 170 169 143 163 161 202 161 132 47 164 88 161 206 180 81 94 182 179 179 180 202 216 195 221 189 186 178 173 168 154 148 139 115
149 153 15 295 160 156 167 191 186 181 158 182 164 185 176 184 182 179 167 209 191 168 133 130 154 140 127 130 178 231 216 199 213 213 213 103 170 165 140 120 136 155 154 146 124
160 131 119 312 196 178 204 179 188 152 249 187 169 168 184 204 177 114 58 161 239 137 146 146 139 155 224 152 96 269 220 201 205 183 204 210 166 145 142 150 151 157 159 149 141